| time (UTC) | temp F | wind direction | speed MPH | gust MPH | rain 1hr in | rain 24hr in | rain mn in | humidity % | barometer mb |
| 20260503040039 | 49 | 36 | 1.0 | 2.0 | 0.00 | 0.01 | 0.00 | 61 | 1010.2 |
| 20260503034541 | 49 | 18 | 0.0 | 2.0 | 0.00 | 0.01 | 0.01 | 69 | 1010.0 |
| 20260503033034 | 48 | 31 | 0.0 | 2.0 | 0.00 | 0.01 | 0.01 | 81 | 1010.1 |
| 20260503031534 | 48 | 278 | 0.0 | 1.0 | 0.00 | 0.01 | 0.01 | 92 | 1010.3 |
| 20260503030036 | 48 | 164 | 0.0 | 0.0 | 0.00 | 0.01 | 0.01 | 92 | 1010.2 |
| 20260503024536 | 48 | 163 | 0.0 | 0.0 | 0.00 | 0.01 | 0.01 | 92 | 1010.2 |
| 20260503023035 | 48 | 163 | 0.0 | 0.0 | 0.00 | 0.01 | 0.01 | 92 | 1010.1 |
| 20260503021531 | 48 | 163 | 0.0 | 0.0 | 0.00 | 0.01 | 0.01 | 92 | 1010.2 |
| 20260503020032 | 48 | 164 | 0.0 | 0.0 | 0.00 | 0.01 | 0.01 | 92 | 1010.3 |
| 20260503014530 | 48 | 163 | 0.0 | 0.0 | 0.00 | 0.01 | 0.01 | 92 | 1010.4 |
| 20260503013038 | 48 | 163 | 0.0 | 0.0 | 0.00 | 0.01 | 0.01 | 92 | 1010.3 |
| 20260503011529 | 48 | 163 | 0.0 | 0.0 | 0.00 | 0.01 | 0.01 | 91 | 1010.4 |
| 20260503010029 | 48 | 164 | 0.0 | 0.0 | 0.00 | 0.01 | 0.01 | 91 | 1010.3 |
| 20260503004534 | 48 | 163 | 0.0 | 0.0 | 0.00 | 0.01 | 0.01 | 91 | 1010.1 |
| 20260503003037 | 48 | 163 | 0.0 | 0.0 | 0.00 | 0.01 | 0.01 | 90 | 1010.0 |
| 20260503001527 | 49 | 163 | 0.0 | 0.0 | 0.00 | 0.01 | 0.01 | 90 | 1009.9 |
| 20260503000027 | 49 | 163 | 0.0 | 1.0 | 0.00 | 0.01 | 0.01 | 89 | 1009.9 |
| 20260502234536 | 49 | 164 | 0.0 | 1.0 | 0.00 | 0.01 | 0.01 | 89 | 1009.7 |
| 20260502233037 | 49 | 261 | 0.0 | 2.0 | 0.00 | 0.01 | 0.01 | 89 | 1009.9 |
| 20260502231524 | 50 | 158 | 1.0 | 3.0 | 0.00 | 0.01 | 0.01 | 89 | 1009.9 |
| 20260502230031 | 50 | 177 | 1.0 | 3.0 | 0.00 | 0.01 | 0.01 | 89 | 1009.8 |
| 20260502224523 | 50 | 175 | 1.0 | 3.0 | 0.00 | 0.01 | 0.01 | 89 | 1010.0 |
| 20260502223033 | 50 | 136 | 0.0 | 2.0 | 0.00 | 0.01 | 0.01 | 89 | 1009.9 |
| 20260502221523 | 50 | 179 | 1.0 | 4.0 | 0.00 | 0.01 | 0.01 | 88 | 1009.9 |
| 20260502220024 | 50 | 177 | 0.0 | 4.0 | 0.00 | 0.01 | 0.01 | 88 | 1009.9 |
| 20260502214520 | 50 | 124 | 1.0 | 6.0 | 0.00 | 0.01 | 0.01 | 88 | 1010.0 |
| 20260502213022 | 51 | 187 | 0.0 | 3.0 | 0.00 | 0.01 | 0.01 | 87 | 1010.0 |
| 20260502211519 | 51 | 142 | 1.0 | 4.0 | 0.00 | 0.01 | 0.01 | 86 | 1009.9 |
| 20260502210019 | 52 | 176 | 1.0 | 4.0 | 0.00 | 0.01 | 0.01 | 84 | 1009.9 |
| 20260502204518 | 53 | 184 | 2.0 | 4.0 | 0.00 | 0.01 | 0.01 | 83 | 1009.8 |
| 20260502203017 | 53 | 120 | 1.0 | 4.0 | 0.00 | 0.01 | 0.01 | 81 | 1010.1 |
| 20260502201516 | 53 | 178 | 2.0 | 7.0 | 0.00 | 0.01 | 0.01 | 83 | 1010.2 |
| 20260502200013 | 51 | 187 | 1.0 | 7.0 | 0.00 | 0.01 | 0.01 | 88 | 1010.3 |
| 20260502194527 | 51 | 143 | 3.0 | 7.0 | 0.00 | 0.01 | 0.01 | 87 | 1010.4 |
| 20260502193011 | 51 | 184 | 3.0 | 6.0 | 0.00 | 0.01 | 0.01 | 87 | 1010.6 |
| 20260502191510 | 51 | 204 | 2.0 | 5.0 | 0.00 | 0.01 | 0.01 | 87 | 1010.7 |
| 20260502190011 | 51 | 191 | 2.0 | 7.0 | 0.00 | 0.01 | 0.01 | 87 | 1010.7 |
| 20260502184508 | 51 | 176 | 1.0 | 5.0 | 0.00 | 0.01 | 0.01 | 88 | 1010.9 |
| 20260502183008 | 51 | 168 | 2.0 | 5.0 | 0.00 | 0.01 | 0.01 | 88 | 1010.9 |
| 20260502181518 | 51 | 198 | 2.0 | 5.0 | 0.00 | 0.01 | 0.01 | 89 | 1011.1 |
| 20260502163106 | 50 | 177 | 0.0 | 4.0 | 0.00 | 0.01 | 0.01 | 86 | 1011.7 |
| 20260502161607 | 50 | 220 | 1.0 | 3.0 | 0.00 | 0.01 | 0.01 | 86 | 1011.4 |
| 20260502151630 | 49 | 201 | 1.0 | 4.0 | 0.01 | 0.01 | 0.01 | 88 | 1012.1 |
| 20260502150103 | 49 | 184 | 2.0 | 6.0 | 0.01 | 0.01 | 0.01 | 87 | 1012.1 |
| 20260502123051 | 51 | 184 | 0.0 | 3.0 | 0.00 | 0.00 | 0.00 | 83 | 1012.2 |
| 20260502121547 | 51 | 253 | 2.0 | 6.0 | 0.00 | 0.00 | 0.00 | 82 | 1012.7 |
| 20260502114541 | 50 | 289 | 0.0 | 2.0 | 0.00 | 0.00 | 0.00 | 83 | 1012.2 |
| 20260502113037 | 50 | 250 | 0.0 | 0.0 | 0.00 | 0.00 | 0.00 | 84 | 1012.1 |
| 20260502111538 | 49 | 172 | 0.0 | 1.0 | 0.00 | 0.00 | 0.00 | 85 | 1012.1 |
| 20260502110034 | 48 | 178 | 0.0 | 0.0 | 0.00 | 0.00 | 0.00 | 86 | 1011.9 |
| 20260502104536 | 47 | 178 | 0.0 | 0.0 | 0.00 | 0.00 | 0.00 | 87 | 1012.0 |
| 20260502103032 | 47 | 178 | 0.0 | 0.0 | 0.00 | 0.00 | 0.00 | 87 | 1011.8 |
| 20260502101532 | 46 | 178 | 0.0 | 0.0 | 0.00 | 0.00 | 0.00 | 86 | 1011.7 |
| 20260502091530 | 48 | 154 | 0.0 | 0.0 | 0.00 | 0.00 | 0.00 | 83 | 1011.7 |
| 20260502071522 | 47 | 155 | 0.0 | 1.0 | 0.00 | 0.00 | 0.00 | 82 | 1011.6 |
| 20260502070021 | 46 | 120 | 0.0 | 1.0 | 0.00 | 0.00 | 0.00 | 82 | 1011.9 |
| 20260502064518 | 46 | 120 | 0.0 | 1.0 | 0.00 | 0.00 | 0.00 | 81 | 1012.1 |
| 20260502063017 | 46 | 120 | 0.0 | 1.0 | 0.00 | 0.00 | 0.00 | 80 | 1011.5 |
| 20260502061528 | 47 | 120 | 0.0 | 1.0 | 0.00 | 0.00 | 0.00 | 79 | 1011.8 |
| 20260502060016 | 47 | 120 | 0.0 | 1.0 | 0.00 | 0.00 | 0.00 | 78 | 1011.8 |
| 20260502054511 | 48 | 120 | 0.0 | 1.0 | 0.00 | 0.00 | 0.00 | 77 | 1011.7 |
| 20260502053009 | 48 | 130 | 0.0 | 1.0 | 0.00 | 0.00 | 0.00 | 76 | 1012.0 |
| 20260502051517 | 48 | 154 | 0.0 | 1.0 | 0.00 | 0.00 | 0.00 | 76 | 1012.1 |
| 20260502050006 | 48 | 164 | 0.0 | 2.0 | 0.00 | 0.00 | 0.00 | 76 | 1012.4 |
| 20260502044504 | 48 | 109 | 0.0 | 1.0 | 0.00 | 0.00 | 0.00 | 74 | 1012.3 |
| 20260502043002 | 49 | 34 | 0.0 | 1.0 | 0.00 | 0.00 | 0.00 | 73 | 1012.3 |
| 20260502041503 | 49 | 76 | 0.0 | 1.0 | 0.00 | 0.00 | 0.00 | 74 | 1012.2 |